sat.trackr.live / text

‹ back to catalog

STARLINK-2722

NORAD 48472 · 2021-040AW

PAYLOAD ACTIVE UNKNOWN

§ Identity

Operator
Country
US
Launch date
2021-05-09
Launch site
AFETR
Launch vehicle
Mass (kg)
RCS (m²)

Purposes: comms

External: N2YO · Heavens-Above · Gunter

§ Orbital elements

Epoch: 2026-09-20T01:22:22.715904Z

Period
94.99 min
Inclination
53.0612°
Eccentricity
0.0000895
Mean motion
15.15891033 rev/d
Perigee alt
517.7 km
Apogee alt
518.9 km
Semi-major
6,896.4 km
B*
4.6121e-4
RAAN
31.2167°
Arg perigee
51.1055°
Mean anomaly
309.0018°
Rev number
29,589

§ Raw data

STARLINK-27221 48472U 21040AW  26263.05720736  .00008639  00000+0  46121-3 0  99932 48472  53.0612  31.2167 0000895  51.1055 309.0018 15.15891033295893

JSON: /api/v1/satellites/48472 · /tle

For live sub-satellite position, see the globe view (requires WebGL).

§ Visibility from observer

Set your observer location to see the next 7 days of passes ≥ 10°. The values pass through the URL so the page stays shareable.

No JS? Fill the form by hand. The geolocation button needs JavaScript.